Location: Gadern
(49.5873°N, 8.8138°E)
Time: 00:53:01
(UTC+00:00)

Cosmos 2058 Rocket - Pass Details

Date: 19 May 2025
Orbit: 604 x 634 km, 82.5° (Epoch: 22 June)

Event Time Altitude Azimuth Distance (km) Brightness Sun altitude
Rises 20:37:16 0° 200° (SSW) 2,918 6.2 -11.5°
Reaches altitude 10° 20:39:32 10° 204° (SSW) 2,013 5.4 -11.8°
Maximum altitude 20:43:55 56° 283° (WNW) 755 3.8 -12.2°
Drops below altitude 10° 20:48:20 10° 2° (N) 2,016 6.5 -12.6°
Sets 20:50:37 0° 7° (N) 2,923 7.3 -12.8°
